RH
85 90 87 83 78 74 72 69 65 60 55 50 46 44 42 40 37 36 37 40 43 45 45 45 46 45 42 37 34 30 25 20 15 11 8 7 8 9 10 11 10 9 8 6 5 4 3 3 3 3 3 3 4 4 4 4 4 4 5 5 5 5 5 5 6 6 7 7 7 8 8 7 7 8 8 9 8 8 7 7 7 7 7 7 7 6 7 7
79 81 80 77 73 71 68 61 54 48 45 42 40 40 38 35 34 36 42 47 49 47 44 41 39 36 34 30 25 19 13 10 8 7 8 9 11 10 9 7 5 4 3 3 3 3 3 3 4 4 5 5 5 6 6 6 6 7 7 7 7 7 8 8 9 9 9 10 10 10 10 11 11 12 12 12 12 12 12 11 11 10 10 9 9 10 11 12
77 74 71 69 67 64 58 51 46 42 40 39 38 37 34 34 38 44 50 51 47 43 39 36 33 30 26 20 14 9 7 7 9 10 10 9 8 6 4 3 3 3 3 4 4 4 5 5 6 6 6 7 7 7 8 8 8 8 8 9 9 9 9 9 10 10 10 11 11 12 12 13 13 14 15 16 16 16 16 16 15 15 14 14 15 15 16 17
76 70 67 64 62 59 56 50 45 43 41 38 35 36 37 41 47 51 50 45 41 36 33 31 27 23 16 10 7 7 8 10 9 8 6 4 3 3 3 3 4 4 5 5 6 6 6 7 7 7 7 8 8 8 9 9 9 9 9 9 10 10 10 11 11 11 12 13 14 14 15 15 16 17 17 18 18 18 18 18 18 18 18 18 18 18 18 18
76 68 64 62 61 59 55 50 46 44 41 38 39 43 47 51 54 50 44 39 35 31 27 23 18 12 8 7 9 9 8 7 5 3 3 3 3 4 4 4 5 6 6 7 7 7 7 8 8 8 8 9 9 9 9 10 10 10 11 11 11 12 12 13 14 14 14 15 15 16 16 16 17 18 18 18 18 18 18 18 18 19 19 19 19 19 18 18
73 66 61 58 57 55 52 47 44 42 42 47 52 54 56 57 52 43 37 33 29 24 19 13 9 7 8 9 8 6 4 3 3 3 4 5 5 5 5 6 7 7 7 7 8 8 8 8 8 9 9 9 10 10 10 11 11 12 12 13 13 13 14 15 15 16 16 16 17 17 17 18 18 19 19 19 19 19 19 19 19 19 19 19 18 18 18 18
67 61 57 53 51 50 47 45 44 47 53 59 63 63 59 52 42 34 31 27 21 14 9 7 8 9 8 6 4 3 3 3 4 5 5 6 6 6 7 7 7 7 8 8 8 8 8 9 9 9 10 10 11 11 11 12 12 12 12 12 13 13 14 15 15 16 17 17 18 18 19 20 20 21 21 21 20 20 20 20 20 20 20 19 20 19 19 19
60 56 53 50 48 45 45 47 52 59 64 66 66 60 49 38 31 28 23 16 10 8 8 9 10 8 4 3 3 3 4 4 4 5 6 6 7 7 7 8 8 8 8 9 9 9 9 10 10 10 10 10 10 10 10 10 10 10 10 11 11 12 13 14 14 14 16 17 17 17 18 20 22 23 23 23 22 23 23 23 23 22 22 22 22 22 22 22
56 54 51 48 45 46 51 58 64 67 66 62 54 43 34 29 25 18 12 8 8 10 10 9 6 4 3 3 4 4 4 5 5 6 6 7 7 7 8 8 8 9 9 9 10 10 10 10 10 9 9 9 9 9 9 8 9 9 9 10 11 11 12 13 13 13 14 15 15 15 17 19 24 26 26 26 25 26 25 25 25 25 25 25 25 25 25 25
56 54 50 48 50 57 64 67 68 64 56 46 37 31 27 21 14 8 8 10 11 10 7 4 3 3 3 4 4 5 5 5 6 6 7 7 8 8 9 9 9 10 9 10 10 9 9 9 9 8 8 8 8 7 8 8 8 9 10 10 10 10 12 13 14 14 15 15 15 16 17 19 26 30 28 27 26 26 25 25 26 27 27 28 28 29 29 30
58 55 54 60 67 72 71 66 60 50 40 33 29 25 17 10 7 9 11 10 7 5 3 2 3 3 4 4 5 5 5 6 7 7 8 8 9 9 9 10 10 10 10 10 9 9 8 8 7 7 7 7 7 7 8 8 8 9 10 10 10 10 12 13 13 14 15 15 15 16 16 18 26 29 27 26 24 22 23 25 26 26 28 30 32 34 34 34
60 63 71 78 80 75 65 56 46 37 31 27 21 14 9 9 10 11 9 6 3 2 3 3 3 4 4 5 5 6 6 7 8 8 9 9 9 9 9 10 10 9 9 8 8 8 7 7 6 7 7 7 8 8 8 9 9 9 10 11 11 11 12 13 13 14 14 14 15 15 14 16 23 26 24 23 21 20 21 22 22 24 26 29 31 33 34 32
74 81 86 84 76 64 51 41 33 28 23 17 10 8 10 11 9 6 4 3 3 3 4 4 4 5 5 6 6 6 7 8 9 9 9 9 9 9 9 9 8 8 7 7 7 7 6 7 7 7 8 8 9 9 10 10 11 11 11 12 13 13 14 15 15 16 16 16 17 18 16 17 22 24 23 22 21 22 22 22 23 24 26 27 27 28 27 25
91 91 84 73 60 46 36 30 26 20 13 8 8 11 12 8 4 3 3 3 4 4 4 5 5 5 6 6 7 8 9 9 10 9 9 10 9 8 8 7 6 6 6 6 6 7 7 8 8 9 10 10 10 11 12 12 12 12 13 14 14 14 16 18 18 19 20 20 20 21 20 20 23 25 24 24 25 26 26 27 27 27 27 27 26 26 25 24
92 81 67 53 40 31 27 23 17 11 8 9 12 11 7 4 3 3 3 4 4 4 5 5 5 6 7 7 8 9 9 10 9 9 9 9 7 6 6 6 6 6 6 7 8 8 9 9 9 9 9 9 10 11 11 11 12 13 13 14 15 16 17 20 22 23 23 23 23 25 25 25 27 28 27 27 29 29 29 29 29 29 30 30 30 29 29 30
76 61 46 34 27 24 21 14 9 8 10 12 9 6 3 2 3 3 4 4 4 5 5 6 6 7 8 8 9 9 9 9 9 8 8 7 6 5 6 6 6 7 7 8 8 9 8 8 8 8 9 9 10 10 11 12 13 14 15 17 18 19 20 22 24 25 25 25 27 28 29 29 30 31 31 32 32 33 34 35 35 36 36 36 36 37 38 38
54 40 29 24 22 18 12 8 9 11 10 7 4 3 3 3 4 4 5 4 5 5 6 7 8 8 9 9 10 9 9 9 7 7 6 5 5 6 6 6 7 7 7 7 7 7 7 7 8 9 9 10 11 12 13 14 15 17 19 19 21 22 23 24 26 28 28 29 30 32 33 33 35 36 37 38 39 40 42 43 44 45 45 45 45 46 47 47
36 26 22 19 15 9 8 10 11 8 5 3 3 3 4 4 5 4 5 5 5 6 7 8 8 10 11 10 10 9 8 7 6 6 5 5 6 6 7 7 7 6 6 6 6 7 7 8 9 10 10 11 12 14 16 17 19 20 22 24 26 27 29 30 32 33 34 35 36 37 38 40 41 43 45 46 47 49 50 52 52 53 53 53 54 55 57 58
24 20 17 12 9 9 11 10 7 4 3 3 3 4 5 4 4 5 5 5 6 7 8 9 10 11 11 10 8 7 6 6 6 6 5 6 6 7 7 7 6 6 6 6 7 8 8 9 10 10 12 14 16 18 20 23 25 27 29 31 33 34 35 38 39 40 41 42 43 45 46 47 48 50 52 54 56 57 58 58 58 58 58 59 62 65 67 68
18 15 10 8 10 12 11 7 3 3 3 3 4 4 4 5 5 5 5 6 7 8 9 10 11 10 9 7 6 5 5 5 6 6 6 7 7 7 7 7 6 6 6 7 8 8 9 10 12 14 16 18 21 23 26 29 31 34 36 36 38 39 39 43 46 47 49 49 50 53 53 52 54 54 56 58 60 61 62 63 63 65 67 69 72 73 73 73
13 9 8 10 13 11 7 4 3 3 4 4 4 4 4 5 5 6 6 8 9 10 10 10 9 8 6 5 5 5 6 6 6 7 7 7 7 7 7 6 6 6 7 7 8 9 11 13 15 18 19 20 23 26 29 32 35 37 39 39 41 44 43 46 52 52 52 54 54 56 56 55 56 56 57 58 60 63 65 67 72 77 80 81 80 80 80 83
8 8 11 14 11 6 4 3 4 4 4 4 4 4 5 5 6 7 8 9 10 10 9 8 7 6 5 5 5 6 6 7 8 8 8 8 8 7 6 6 7 7 8 9 10 11 13 14 16 17 18 20 24 27 29 33 37 40 40 40 44 49 46 42 48 51 51 55 55 56 57 56 57 57 58 58 60 63 66 69 76 81 83 85 86 88 90 91
9 12 14 11 6 4 3 4 4 4 4 4 4 5 5 6 7 8 9 9 10 8 7 6 6 6 6 6 6 7 7 8 8 7 7 7 7 6 6 7 7 8 9 10 11 11 12 13 14 16 16 19 23 25 27 31 39 43 41 42 46 49 48 41 39 41 46 54 56 56 56 55 57 57 58 60 62 65 68 73 80 84 88 91 93 94 94 94
12 12 9 6 4 3 4 4 4 4 4 4 5 5 6 7 9 9 9 9 9 7 6 6 6 6 7 6 6 8 8 7 7 7 6 6 6 6 7 8 9 9 9 9 10 10 11 12 13 14 14 17 20 21 24 26 32 40 41 42 42 42 44 43 41 39 41 48 51 53 55 54 56 58 59 62 66 71 78 86 94 96 97 98 98 98 98 97
10 7 4 3 4 4 4 4 4 4 4 4 5 6 8 9 10 10 8 8 7 6 5 6 6 7 7 7 7 7 7 6 6 6 6 6 6 7 8 8 9 9 8 8 9 9 10 11 11 12 12 15 17 19 22 23 26 32 34 34 35 35 37 40 44 43 39 41 47 56 60 55 53 58 62 66 72 80 87 95 100 100 98 99 99 99 100 100
5 4 4 4 4 4 4 4 4 4 4 5 7 8 9 10 10 9 7 6 6 7 6 6 7 7 7 7 6 6 6 5 6 6 6 7 7 8 8 8 9 9 9 8 9 10 11 11 11 12 13 15 17 20 23 24 24 26 27 28 32 35 36 38 42 43 42 43 50 61 64 57 53 57 65 72 79 83 89 95 95 94 95 96 97 98 99 99
4 4 5 4 4 4 3 4 4 5 6 8 9 10 9 9 9 8 7 6 6 7 7 7 7 6 7 6 5 6 6 5 6 6 7 7 8 8 7 9 9 9 10 9 10 12 11 11 12 13 15 17 20 23 25 25 25 26 29 29 32 35 36 38 39 44 47 45 51 61 62 57 52 56 72 83 86 87 90 92 90 89 92 93 95 96 96 95
4 4 4 3 3 3 4 4 5 7 9 10 10 10 8 8 8 7 7 6 6 6 7 7 6 6 6 6 5 6 6 6 7 7 8 8 8 8 8 9 9 9 11 10 10 11 11 12 14 14 18 20 22 25 25 25 27 29 31 31 33 36 37 39 40 45 47 42 50 59 58 59 52 56 80 92 89 89 88 86 87 89 91 92 95 94 91 90
4 3 3 3 3 4 4 5 7 9 10 10 9 8 7 7 7 7 7 6 7 6 6 6 6 6 5 5 5 6 6 7 7 7 8 8 8 9 9 9 9 10 11 11 10 11 13 14 15 16 19 20 22 25 25 28 32 32 32 31 32 36 37 38 39 43 41 40 51 55 57 68 60 57 79 87 81 83 83 85 90 91 92 91 89 86 84 82
3 2 3 3 3 4 5 7 9 11 10 9 8 7 6 6 6 7 7 7 7 6 6 6 6 6 6 6 6 7 7 7 8 8 8 9 9 9 9 10 10 10 11 12 12 13 15 15 15 16 17 17 20 24 27 33 36 35 33 32 31 33 35 34 36 40 38 37 47 51 57 72 66 61 75 80 78 83 86 90 93 90 89 88 84 82 79 77
2 2 3 3 4 5 7 9 10 10 10 9 8 7 6 6 6 7 7 7 7 6 6 6 6 6 6 6 7 7 8 8 8 9 9 9 10 10 10 10 10 10 10 11 13 14 15 15 15 15 15 15 17 22 28 34 37 36 38 39 35 34 33 31 35 39 39 40 47 54 61 67 67 68 75 79 83 88 91 91 89 86 85 83 80 77 77 83
3 3 3 4 5 6 8 10 10 10 10 8 7 7 7 7 7 7 6 6 7 6 6 6 6 6 6 7 7 7 8 8 8 9 9 9 9 8 9 9 9 9 9 10 12 14 15 14 15 15 15 17 18 20 24 29 35 38 42 45 44 43 40 37 40 45 45 46 52 62 67 65 67 71 75 81 87 88 89 87 83 83 83 78 77 81 88 93
2 3 4 5 6 8 9 10 10 10 9 8 8 7 7 8 7 6 6 6 6 6 6 6 6 7 7 7 8 8 9 9 8 9 8 8 9 8 9 9 9 9 9 10 10 12 14 13 15 17 18 20 23 25 25 29 37 43 47 49 52 59 57 50 53 60 60 56 58 68 72 73 75 72 74 82 86 87 87 88 87 89 91 90 92 98 100 97
3 4 4 5 7 9 9 10 10 9 9 8 8 7 7 8 7 7 6 6 6 6 6 6 7 7 7 8 8 8 9 9 8 9 9 9 9 9 9 9 9 10 10 10 10 11 14 16 17 19 22 24 27 33 36 39 43 47 51 54 56 63 64 61 67 79 82 70 63 70 75 82 83 75 82 94 94 94 94 94 97 98 101 103 101 102 102 101
4 4 5 7 8 9 9 10 10 10 9 9 7 7 8 8 7 7 6 6 6 6 6 7 7 7 8 8 8 8 9 9 8 9 9 9 10 9 9 10 10 10 10 10 11 11 15 21 22 21 24 27 31 39 43 44 47 48 51 54 54 59 63 65 67 82 96 81 67 74 80 85 89 84 92 103 98 98 100 99 102 103 103 103 101 102 103 95
4 5 6 7 8 9 9 10 11 10 9 9 8 8 8 8 7 6 6 6 6 6 7 7 7 8 8 8 8 8 9 9 9 9 9 10 10 10 10 11 11 11 11 11 12 12 14 21 24 23 26 28 34 45 49 49 53 53 52 51 52 56 66 73 72 80 98 87 69 78 83 82 89 90 94 99 96 98 101 100 101 102 103 103 101 96 83 63
4 6 7 7 9 9 9 10 11 10 9 8 8 8 9 8 7 7 6 6 6 6 7 8 8 8 9 9 9 9 9 9 9 10 10 10 11 11 11 12 12 12 12 12 13 13 14 19 24 24 27 30 35 44 49 53 58 56 53 53 54 57 64 79 91 96 101 95 81 81 84 83 90 97 99 100 100 101 101 98 99 102 102 97 85 68 48 32
5 6 7 8 9 9 10 11 10 10 10 8 8 9 9 9 8 7 7 6 7 7 7 8 8 8 9 9 9 9 9 10 10 10 11 11 12 12 12 12 13 13 13 14 14 15 15 18 23 25 28 33 37 40 43 50 55 55 55 57 62 68 67 75 97 105 102 102 95 81 76 81 91 100 103 102 102 102 100 100 102 99 90 74 54 37 25 19
5 6 7 8 9 9 11 11 10 10 9 8 9 10 10 10 8 7 7 7 7 7 8 8 8 9 9 9 9 9 10 10 10 11 11 12 13 13 13 13 14 14 15 15 15 17 17 18 23 27 30 35 38 38 40 45 50 51 55 59 63 74 77 73 87 104 105 104 100 86 73 76 91 101 102 102 102 102 103 102 97 83 64 45 31 22 19 17
6 7 7 8 9 9 11 11 11 9 9 9 10 10 11 11 9 7 7 7 7 8 8 9 9 9 9 9 9 9 10 11 11 12 12 14 14 15 15 15 15 15 16 17 17 18 20 19 22 26 29 35 39 41 44 48 52 54 57 64 68 76 83 77 75 90 102 103 105 99 77 69 91 105 102 103 103 102 101 93 77 56 38 27 21 19 18 18
6 6 7 8 8 9 11 12 10 9 8 9 10 11 12 11 10 8 7 7 8 8 9 9 10 10 9 10 10 10 11 11 12 13 13 15 15 16 17 17 17 18 18 20 20 21 22 22 23 25 28 35 39 42 47 52 56 59 61 67 73 80 90 91 80 77 87 97 104 101 79 73 97 107 101 103 104 96 85 67 48 33 23 20 19 19 21 20
6 6 7 8 8 9 10 10 9 9 9 10 10 11 12 12 11 8 7 8 8 8 9 10 10 10 10 11 10 11 12 12 13 14 14 16 17 17 19 19 20 21 21 23 24 24 25 25 25 26 29 34 38 39 44 49 54 58 62 66 71 79 90 100 99 89 82 83 88 88 78 81 100 106 103 104 94 76 58 40 28 22 19 19 20 20 21 20
6 6 7 8 9 10 11 10 9 9 9 10 10 10 12 12 11 9 7 8 8 9 10 10 10 11 11 11 11 11 12 13 14 15 16 17 18 19 21 21 23 24 25 27 27 28 28 28 28 28 28 32 36 39 43 50 55 57 62 67 69 75 83 92 100 97 80 70 77 86 80 79 94 105 104 95 72 49 35 25 20 19 18 21 22 21 20 18
6 6 7 8 9 10 11 10 10 10 9 9 10 10 12 13 12 10 8 8 9 9 10 10 11 11 11 11 12 12 13 14 14 16 17 18 19 21 22 24 26 27 29 30 30 31 31 32 34 34 32 32 35 39 42 48 56 59 64 70 69 71 75 77 83 87 75 63 72 88 85 77 89 99 89 70 48 31 23 19 17 19 20 21 21 19 16 14
6 6 7 8 10 11 10 11 11 10 9 9 10 10 12 13 13 10 8 8 9 9 10 11 11 11 11 11 12 13 13 15 16 16 18 19 20 22 23 25 28 29 32 33 33 33 32 34 40 44 45 46 49 54 54 54 58 61 64 67 67 69 69 69 73 77 71 62 68 92 98 83 80 81 64 44 33 22 17 17 18 21 22 21 18 15 13 12
6 6 7 9 10 11 11 12 11 10 10 10 10 11 12 14 13 10 8 9 9 10 11 11 12 12 12 12 12 13 14 15 16 17 18 19 20 22 24 25 28 30 33 34 34 34 33 33 40 47 50 52 57 62 63 62 62 61 62 63 64 66 64 65 69 70 72 72 71 90 104 89 75 68 49 31 23 17 15 18 20 22 21 18 14 11 10 11
6 7 8 8 10 12 12 13 13 11 11 10 10 11 12 14 14 10 8 9 9 11 11 12 12 12 12 13 13 14 15 16 17 17 19 20 20 23 24 26 29 31 31 33 33 33 33 33 37 45 48 50 56 61 62 63 63 62 63 63 61 60 57 60 64 68 81 89 80 81 92 84 70 58 40 25 19 14 15 19 21 21 18 13 11 9 10 11
6 6 8 9 10 13 13 14 14 13 12 12 11 12 12 15 14 10 9 10 10 11 12 12 13 12 13 13 14 15 16 16 17 17 19 20 21 23 25 26 29 30 29 31 33 32 34 34 34 40 46 48 53 59 58 58 62 62 62 62 59 56 53 57 68 80 91 96 88 82 82 72 57 42 27 19 16 14 16 19 20 17 12 9 9 8 10 11
5 6 8 9 11 13 14 14 15 14 14 13 12 13 14 15 14 10 9 10 10 11 12 12 13 13 13 13 14 15 16 16 18 18 19 21 21 23 26 27 28 30 29 30 32 32 34 35 34 37 42 45 49 55 56 55 59 60 61 62 58 54 52 58 78 95 94 87 86 84 73 57 43 31 20 15 13 14 17 18 15 11 8 8 8 9 11 12
5 6 8 10 12 14 15 15 16 16 16 15 14 14 15 15 13 10 9 10 11 11 11 12 13 13 13 14 15 15 16 17 18 19 20 22 22 23 25 27 29 31 31 30 31 33 34 35 35 36 39 42 44 49 53 56 59 59 60 61 58 54 52 59 81 96 88 79 82 80 63 44 33 24 17 12 11 13 17 15 11 8 7 9 12 13 13 12
5 6 8 11 13 14 15 16 17 18 18 17 16 15 16 16 12 9 9 10 11 11 11 12 13 13 14 15 16 16 17 19 19 20 22 23 23 24 25 28 30 31 32 31 31 34 35 35 36 36 38 41 42 46 50 52 56 58 59 60 59 58 57 62 80 92 87 81 78 69 56 41 29 20 13 9 11 14 16 13 8 6 9 15 21 20 14 11
4 6 9 12 13 14 16 16 17 19 18 17 17 16 16 15 11 9 10 11 11 12 12 12 13 14 15 15 17 18 18 20 21 22 24 24 23 25 27 28 31 31 31 31 32 34 36 37 38 38 39 39 41 45 48 49 52 57 61 62 62 62 58 61 75 82 79 81 76 64 55 43 27 16 10 8 11 13 15 12 6 9 17 26 32 28 18 13
Wind_Speed
14 16 17 16 14 14 14 13 12 11 10 9 8 7 5 4 2 1 1 1 2 2 3 3 4 5 7 8 10 11 12 13 13 12 11 11 11 11 12 12 13 13 14 14 15 15 15 16 16 17 18 19 19 20 21 21 22 23 23 24 25 25 26 27 28 29 29 30 30 31 32 33 33 34 35 35 36 36 37 38 39 40 41 42 43 44 44 45
15 15 17 17 15 14 13 13 12 11 9 8 7 6 4 3 2 2 2 2 2 2 3 4 6 7 8 9 10 10 11 10 10 10 10 10 11 12 12 13 13 14 14 14 15 15 16 17 17 18 19 20 21 22 23 23 24 25 25 26 26 27 28 29 30 31 32 32 33 33 34 35 36 36 37 37 38 38 39 40 41 42 43 44 44 45 46 47
15 15 16 16 16 15 14 13 12 10 9 7 6 5 4 3 3 4 4 3 3 3 5 6 7 8 8 9 9 9 8 8 9 9 10 11 12 13 13 14 14 14 14 15 16 16 17 18 19 20 21 22 23 24 25 26 26 27 28 29 29 30 31 32 33 33 34 34 35 36 36 37 38 38 39 39 39 40 40 41 42 43 43 44 45 46 47 48
16 15 15 15 15 14 13 12 11 9 8 7 6 5 5 5 5 5 5 4 4 5 6 6 7 8 8 8 7 7 8 9 10 10 11 12 13 13 14 14 15 15 16 17 18 18 19 21 22 23 24 25 26 27 28 28 30 31 31 32 32 33 34 34 35 35 35 36 37 37 38 39 39 39 40 41 41 41 41 42 42 43 43 44 45 46 47 48
17 16 14 14 14 13 12 11 10 9 8 7 7 6 6 6 6 6 5 4 5 5 5 5 6 7 7 7 7 8 9 9 10 11 12 13 14 14 15 15 16 17 18 19 19 20 21 22 24 25 26 27 28 29 30 31 32 33 33 34 34 35 35 35 35 36 36 37 37 38 38 39 39 40 40 41 42 42 42 43 43 44 44 45 46 47 47 48
17 16 15 14 14 13 12 11 10 9 9 8 8 8 7 7 6 6 5 5 5 4 4 5 5 6 7 7 8 9 10 10 11 12 13 14 14 15 15 16 17 18 19 20 21 21 23 24 25 27 28 29 30 31 32 32 33 34 34 35 35 36 36 36 36 37 37 38 39 39 40 40 40 40 41 42 43 43 44 44 45 45 46 47 48 48 49 50
18 17 16 15 14 13 12 11 11 10 10 9 9 9 8 8 7 6 5 4 4 4 5 5 7 7 8 8 8 10 11 11 12 12 13 14 14 15 16 17 18 18 20 21 22 23 25 26 27 29 30 31 31 32 32 33 34 34 35 36 36 37 37 37 38 38 39 39 40 40 41 41 41 41 42 43 45 45 46 47 47 48 49 50 50 51 52 52
18 18 16 15 14 13 13 12 12 11 11 11 11 10 9 8 7 5 4 4 5 6 7 7 7 7 8 9 9 10 11 11 12 12 13 14 15 16 17 18 20 20 22 24 25 26 28 29 30 31 32 32 32 33 33 34 35 35 36 36 37 37 38 38 38 39 39 39 40 40 41 41 42 41 42 44 45 45 47 48 49 50 51 52 53 54 54 55
19 18 17 16 15 14 14 14 13 12 12 13 12 11 9 7 6 5 6 7 8 8 8 7 8 8 9 9 10 11 12 12 12 13 14 15 16 18 19 21 22 23 25 26 27 28 29 30 31 31 32 33 33 33 34 34 35 35 36 36 37 37 37 37 38 38 38 39 39 39 40 40 40 40 42 44 45 46 47 49 50 51 52 53 55 56 57 58
19 18 17 17 16 16 15 14 14 13 14 13 12 10 8 7 7 8 9 9 9 8 8 8 9 9 10 10 11 11 11 12 13 14 15 17 18 19 21 23 24 25 26 27 28 29 30 31 31 32 32 32 32 33 33 34 35 35 36 36 37 37 37 37 38 38 39 39 39 39 40 40 40 40 42 44 45 47 48 49 50 51 53 54 55 57 58 59
18 18 18 18 18 17 16 15 15 14 14 13 11 9 8 9 10 10 10 10 9 9 9 9 9 10 11 11 10 11 12 13 14 16 17 19 20 21 23 24 25 26 27 28 29 30 31 31 32 32 32 31 32 32 33 33 34 35 36 36 37 36 37 38 39 39 40 41 41 41 41 42 43 43 45 46 48 50 50 51 52 52 54 55 55 57 58 59
20 20 20 19 19 18 17 16 16 15 13 12 10 10 11 12 12 11 10 10 10 10 10 10 9 10 10 10 10 11 13 14 16 18 19 20 21 22 24 25 26 27 27 28 30 30 30 30 30 30 30 30 31 31 32 32 33 34 34 35 35 35 36 37 38 39 40 41 42 43 42 43 46 48 49 51 52 53 53 54 55 55 56 57 57 59 60 61
21 21 21 20 19 18 18 17 16 15 13 12 12 13 14 13 12 11 11 11 12 11 11 10 9 9 9 9 11 13 14 16 18 20 21 21 22 24 25 25 26 27 27 28 28 28 28 29 29 29 29 30 30 31 31 31 32 32 32 33 34 34 36 37 38 39 41 42 43 45 43 43 47 50 52 53 54 54 55 55 56 56 57 58 60 61 62 63
22 22 22 21 20 19 19 17 16 14 14 15 15 15 14 13 12 12 12 12 12 11 10 9 8 9 9 10 13 15 16 18 18 20 22 22 24 25 25 25 26 26 26 26 27 27 28 28 28 28 29 30 30 30 31 31 31 31 32 33 34 34 35 38 40 40 42 44 44 46 45 44 48 52 53 54 54 55 55 55 56 57 58 59 60 61 61 62
23 23 22 22 21 20 19 17 16 16 17 17 16 15 14 13 13 13 13 11 10 9 9 8 8 9 11 13 15 16 17 19 20 22 24 24 25 26 25 25 26 25 25 26 27 28 28 28 29 29 30 31 31 30 30 31 32 33 33 33 34 34 34 37 40 41 42 44 45 47 47 46 49 52 54 54 54 55 56 56 57 57 59 60 60 61 61 62
23 23 23 23 22 20 18 17 18 18 18 17 16 15 15 14 14 13 11 10 9 8 8 9 10 11 13 15 16 17 19 21 23 24 24 24 25 25 25 26 26 27 28 28 29 29 30 31 32 32 32 32 32 33 34 35 35 34 35 34 34 35 35 35 39 41 42 44 45 48 49 48 50 53 54 55 55 56 57 58 58 59 60 61 61 61 62 62
24 24 24 23 21 19 19 20 20 19 18 17 17 17 16 15 14 12 10 9 8 9 9 10 11 12 15 17 18 20 22 22 23 23 23 24 25 26 27 28 28 29 30 30 30 31 32 32 32 32 32 33 35 37 37 37 36 35 36 36 36 37 38 38 38 41 43 44 45 47 49 50 52 54 55 56 56 57 58 59 59 60 61 61 61 61 61 61
25 25 24 22 21 21 21 22 20 19 18 18 18 17 16 14 13 11 9 8 8 9 11 12 14 15 17 19 19 20 21 22 23 23 24 26 27 28 29 29 30 31 32 32 34 34 33 32 33 34 35 37 37 36 36 37 37 37 37 38 38 38 40 41 40 42 44 45 46 48 49 50 52 54 55 56 57 58 58 59 60 60 60 60 60 60 61 61
26 24 23 23 23 23 23 21 20 19 19 19 18 16 14 13 12 10 8 7 8 11 13 14 16 15 15 17 18 19 21 22 23 23 26 28 28 29 29 30 31 33 33 34 34 34 34 35 36 37 38 38 37 36 37 39 39 40 40 40 41 41 41 42 43 44 45 46 47 49 51 50 50 52 54 55 55 56 57 58 58 59 59 59 60 60 61 61
25 24 24 25 25 25 23 21 20 20 19 19 17 15 13 11 10 8 7 8 11 14 14 15 15 14 14 17 18 20 22 24 24 26 28 29 29 30 30 31 33 34 35 35 35 35 37 38 39 39 38 39 39 40 41 41 42 42 43 43 43 43 43 42 44 46 46 47 48 49 51 51 51 52 53 54 55 56 56 56 56 57 58 58 59 60 61 61
25 26 26 26 25 25 23 22 21 20 19 17 16 14 12 10 9 8 9 11 13 14 13 14 15 16 18 21 22 22 23 24 26 28 30 30 30 31 32 33 35 35 37 38 38 40 40 40 41 41 42 43 43 43 44 44 45 45 45 45 44 44 44 42 43 47 48 48 49 51 52 51 52 52 53 54 55 55 55 55 55 55 56 58 58 59 59 60
27 27 27 26 24 23 23 23 22 20 18 16 15 13 11 10 10 11 11 11 12 13 13 14 16 19 22 23 24 25 26 27 28 30 32 31 31 33 34 35 36 38 40 41 42 43 43 44 45 45 46 46 46 46 46 46 46 47 47 48 46 46 46 44 43 46 50 51 51 53 53 52 52 53 53 54 54 54 55 55 56 56 57 58 58 58 59 61
28 28 27 25 24 23 23 22 21 19 17 15 13 11 10 11 12 12 13 12 12 14 16 17 19 21 23 24 25 26 27 28 29 30 31 31 32 35 36 36 38 39 41 43 44 45 46 47 47 48 49 48 48 48 49 48 47 47 49 49 48 48 50 49 48 48 50 52 54 54 54 54 53 54 54 54 54 53 54 55 55 56 56 56 57 59 61 63
28 27 26 26 25 24 23 21 19 17 15 12 11 10 11 11 12 13 14 14 15 17 18 19 20 22 23 25 26 25 26 29 30 30 31 33 34 36 36 37 39 40 42 44 45 46 48 48 49 50 51 51 51 52 52 52 50 49 50 51 51 52 52 53 54 53 51 51 53 55 55 54 54 55 54 54 54 54 55 55 55 54 55 57 59 60 62 63
28 27 28 27 26 24 21 19 17 15 13 12 11 11 11 12 13 14 15 16 16 18 20 20 21 22 23 25 26 25 27 30 30 31 33 35 36 37 38 39 41 42 44 46 47 48 49 50 51 52 53 54 54 55 55 55 55 54 54 55 56 56 55 55 56 56 55 53 53 54 54 54 55 56 56 56 56 56 57 57 56 57 58 60 61 62 63 65
29 29 28 26 24 22 19 17 15 14 13 12 12 13 13 13 13 15 16 17 18 19 20 21 22 23 24 25 26 27 29 32 32 33 35 36 37 38 40 42 43 44 45 47 48 49 50 51 52 53 54 56 56 57 58 58 58 58 58 58 58 57 58 58 58 58 57 55 53 52 54 56 57 58 58 57 57 58 59 59 59 60 61 62 63 64 65 66
30 29 26 24 22 20 18 16 15 14 13 13 13 14 14 14 15 16 16 16 19 20 20 21 23 25 25 26 28 30 31 34 34 36 37 37 38 40 42 43 44 45 46 47 49 50 52 53 54 55 56 57 58 58 59 59 60 60 59 60 59 59 59 59 59 57 56 57 55 53 55 59 60 61 59 58 58 59 59 60 61 62 62 63 64 65 65 66
29 27 24 22 20 18 17 15 15 14 14 14 14 15 16 16 16 16 17 17 19 21 22 23 24 25 26 27 31 32 33 35 36 36 38 39 40 42 43 44 46 47 47 48 50 52 54 55 56 57 58 58 59 60 60 61 61 60 60 60 60 61 61 60 60 57 58 61 58 56 59 62 62 61 59 59 59 60 61 62 62 62 63 64 64 65 66 69
27 24 22 20 18 17 16 15 15 15 16 16 16 16 17 17 17 17 18 19 21 22 23 25 25 26 28 30 32 33 34 36 37 37 39 40 41 43 44 46 47 47 48 50 52 55 56 56 58 59 59 60 60 61 62 61 61 61 60 61 61 61 61 61 60 59 61 63 60 60 63 63 63 61 59 60 61 62 62 62 62 63 63 64 65 67 70 72
24 22 20 19 18 17 16 16 16 15 16 16 17 17 18 18 18 18 19 21 21 22 24 25 26 27 29 31 33 34 35 37 39 39 41 42 43 44 45 47 48 49 50 52 54 57 58 59 60 60 60 61 62 62 62 61 61 62 62 62 61 59 59 60 59 59 61 61 60 62 62 62 64 62 59 61 62 61 61 61 62 63 64 66 68 70 73 75
22 20 19 18 18 17 17 17 16 16 16 16 17 17 18 20 19 19 20 21 22 24 24 25 26 27 29 31 33 35 36 38 39 40 42 43 44 45 46 47 49 50 52 52 53 56 58 59 60 60 60 61 62 61 62 61 61 63 64 64 64 61 60 60 59 58 60 60 60 61 60 60 63 62 61 62 62 60 61 62 63 65 67 68 71 73 75 77
20 19 19 18 18 17 17 16 16 16 16 16 17 18 18 19 19 20 22 22 22 24 25 25 27 29 31 33 35 36 37 38 40 40 42 43 44 46 47 48 50 51 52 53 53 55 57 59 59 60 60 61 62 62 61 61 61 63 63 64 66 66 65 65 64 62 62 61 61 60 60 61 61 60 61 61 60 61 62 63 65 68 69 70 72 74 77 80
19 19 19 18 18 17 17 16 16 16 16 15 17 18 18 19 19 20 22 23 23 24 25 26 28 31 34 35 36 37 38 39 40 42 43 45 46 48 49 50 51 53 54 55 56 56 57 59 59 60 62 62 63 64 64 63 62 63 64 66 67 66 68 70 69 67 66 65 63 61 61 62 61 61 61 60 61 62 64 66 67 67 67 69 73 76 80 84
19 19 19 18 18 17 17 16 15 15 15 15 16 17 18 18 19 20 21 23 23 24 27 29 30 33 36 37 37 38 38 39 41 43 44 46 47 48 49 51 52 53 55 56 57 58 58 61 61 62 63 64 64 65 66 66 65 65 65 66 66 65 67 71 70 68 67 69 67 62 62 63 63 65 64 62 63 64 66 67 64 63 65 71 76 79 83 86
19 18 18 18 17 17 16 16 14 13 14 14 16 18 18 17 19 20 21 22 24 25 28 31 33 35 36 37 37 38 39 40 42 43 44 46 47 48 49 51 52 53 55 57 58 59 59 60 62 64 65 65 65 64 65 66 65 65 65 66 66 65 66 68 69 67 66 70 70 66 65 66 66 68 66 64 66 67 65 61 59 64 70 75 79 81 84 86
19 18 18 17 17 16 16 15 13 12 13 13 15 18 18 17 18 20 21 22 24 26 28 30 33 34 35 37 37 38 39 40 42 43 44 46 47 48 50 51 53 54 56 58 59 60 61 59 61 65 65 66 66 64 65 66 65 65 66 66 66 66 66 67 69 67 64 68 72 70 69 69 69 68 66 66 68 66 60 57 61 69 75 78 81 83 84 84
18 17 17 17 16 16 15 13 12 12 12 13 16 17 17 17 18 19 20 21 23 26 28 29 32 33 34 36 37 38 39 40 42 43 44 46 48 50 51 53 54 55 57 59 60 62 63 61 60 64 65 66 66 64 65 66 65 66 67 67 67 67 68 68 69 69 65 67 72 72 70 71 70 68 67 68 68 65 63 65 70 75 77 79 81 82 81 80
16 16 16 17 16 16 13 11 11 12 11 13 16 16 16 17 17 17 19 20 22 25 27 29 31 32 33 35 36 37 38 40 42 43 45 47 49 51 53 54 55 57 58 61 62 64 66 64 62 64 66 66 66 66 66 65 65 66 67 68 68 69 71 71 70 68 65 66 73 74 73 72 70 67 69 69 67 68 72 75 77 79 80 81 81 80 79 77
15 15 15 16 16 15 12 10 10 11 11 14 16 15 15 17 17 17 18 20 22 24 26 28 30 31 33 34 35 36 38 40 41 43 45 48 50 52 54 55 56 58 60 62 63 65 68 68 65 65 67 67 67 67 67 65 64 66 66 67 68 67 69 72 70 67 66 68 71 75 77 74 70 68 70 69 68 72 78 80 81 81 81 80 79 78 76 75
14 15 15 15 15 13 11 9 8 9 12 15 15 14 15 16 16 17 18 20 22 24 26 28 29 31 32 33 34 36 38 40 42 44 46 48 50 52 54 56 57 59 61 63 65 67 69 70 69 67 67 68 69 70 70 69 68 69 69 69 69 68 68 70 70 67 68 69 69 74 79 76 70 70 72 71 72 76 79 80 81 80 79 77 76 75 75 76
13 14 14 13 13 12 9 7 7 10 13 14 13 13 14 15 16 17 18 20 22 24 25 27 29 30 32 33 34 36 38 40 42 44 46 48 51 53 54 57 58 60 63 64 66 68 70 71 71 70 69 69 70 72 73 72 71 70 70 70 70 70 70 71 72 70 70 70 69 73 79 77 72 73 74 73 75 78 79 79 78 77 76 74 74 74 76 77
14 14 13 11 11 10 6 5 7 10 11 11 11 12 14 15 16 17 18 20 21 23 25 27 28 30 32 33 35 36 38 40 42 44 46 48 51 53 55 57 59 61 64 65 67 69 70 72 73 72 71 69 68 69 69 68 67 67 68 69 70 70 70 71 72 73 73 73 72 75 80 78 75 75 75 74 76 77 76 75 75 74 74 73 74 75 77 79
14 14 13 10 9 7 5 5 8 9 9 9 9 10 12 15 16 17 18 19 21 23 25 26 28 30 32 33 35 36 38 40 42 44 46 48 50 53 55 57 60 62 64 67 69 71 72 73 74 75 73 69 67 67 67 66 66 66 67 69 70 70 70 70 70 72 75 77 77 78 81 80 76 75 75 75 77 76 74 73 73 73 73 74 76 78 79 78
13 13 11 10 8 6 5 7 7 7 7 8 7 8 11 14 16 17 18 19 21 23 25 26 28 30 32 34 35 37 38 40 42 44 46 48 50 53 55 58 61 63 66 68 70 73 74 75 75 77 78 76 74 72 72 71 69 69 70 70 72 72 71 72 72 73 77 79 78 78 82 83 79 75 76 77 77 76 74 72 72 73 74 76 78 80 78 73
12 11 10 9 8 5 6 8 7 6 7 6 6 7 9 12 15 17 17 19 21 22 24 26 28 30 32 34 35 37 39 41 42 44 47 48 51 53 56 59 62 64 67 69 71 74 76 77 76 76 79 80 78 77 77 77 75 73 72 72 73 74 74 75 75 76 78 81 80 77 81 86 82 77 79 79 78 77 75 73 73 74 76 79 80 78 72 65
10 10 10 9 8 6 8 8 7 6 6 4 5 7 9 12 15 16 16 18 20 22 24 26 28 30 32 34 36 37 39 41 43 45 47 49 52 54 57 60 63 65 67 69 71 74 77 79 78 76 77 78 77 75 76 76 76 76 75 75 75 76 77 77 76 76 78 82 83 79 80 86 85 81 82 82 79 78 76 75 76 77 79 80 77 71 63 57
9 10 10 9 8 8 8 8 7 6 5 4 4 6 8 11 14 15 16 17 20 22 24 26 28 30 32 34 36 37 40 42 44 46 48 51 53 56 58 61 63 66 68 69 71 73 76 80 80 78 77 78 76 75 75 75 75 77 78 77 78 79 80 77 75 76 77 81 86 84 82 86 86 84 84 83 80 78 77 77 79 80 80 77 70 63 56 51
8 10 10 8 8 8 8 7 6 6 5 4 5 5 8 11 13 14 15 17 20 22 23 25 28 30 32 33 35 37 40 42 45 48 50 52 55 57 59 62 64 66 68 69 71 73 76 79 81 80 78 79 77 75 76 77 76 77 79 78 79 81 81 79 76 76 77 79 85 87 86 86 86 85 85 82 79 78 78 78 80 80 77 71 63 56 52 48
8 10 9 8 7 8 8 7 6 6 5 5 5 5 7 10 13 14 15 17 19 21 23 25 27 29 31 33 35 38 40 43 45 48 51 53 56 58 60 62 64 66 68 69 71 73 76 79 82 82 80 80 79 76 77 78 77 78 79 79 80 82 82 81 77 76 78 81 84 87 87 87 86 86 85 81 78 77 77 78 79 77 72 65 58 53 50 46
8 9 8 7 7 7 8 7 6 6 6 5 5 6 7 10 12 13 15 17 19 21 23 25 27 29 31 33 36 38 41 44 47 49 51 54 57 59 61 63 65 66 68 69 71 73 76 79 81 83 83 82 80 79 79 79 78 79 80 80 82 84 85 84 79 78 82 86 87 87 89 89 88 86 84 81 78 77 78 79 79 73 66 59 54 51 48 44
8 8 7 6 6 7 7 7 7 6 6 5 5 6 7 10 12 13 15 17 19 21 23 25 27 29 31 34 36 39 42 45 47 50 52 55 58 60 62 64 66 67 68 69 71 74 76 79 81 84 84 84 83 81 81 81 80 80 81 83 85 87 88 86 80 79 84 88 90 91 91 92 90 87 85 81 78 78 80 80 77 68 60 55 53 50 47 43
7 7 6 6 6 7 7 7 7 6 6 5 5 6 7 10 12 13 14 17 19 21 23 25 28 29 32 34 37 39 42 45 48 51 53 56 59 61 63 65 66 67 68 69 71 74 77 80 83 85 86 86 86 84 84 84 84 84 85 87 88 89 89 88 83 82 85 88 91 93 92 92 91 88 87 84 81 80 81 79 73 64 57 54 52 49 47 42
Wind_Direction
146 148 149 153 147 133 125 120 115 112 109 109 110 114 117 117 112 92 57 17 3 4 5 11 15 13 8 2 355 349 345 341 339 340 342 344 342 341 342 341 339 337 333 329 325 323 322 321 320 318 317 316 314 312 309 308 307 305 304 302 300 297 295 294 293 292 291 290 289 288 286 285 285 284 284 284 283 282 281 280 279 279 278 278 277 277 277 278
141 141 142 144 142 135 127 120 117 115 116 117 117 120 122 119 114 104 88 67 49 39 32 28 22 14 6 357 351 348 345 345 347 351 351 349 346 345 343 340 338 336 334 330 328 327 326 324 323 320 318 316 314 312 311 310 308 306 304 303 301 299 297 297 296 295 294 293 292 291 290 289 288 287 287 286 284 283 282 281 280 280 279 278 278 278 278 278
142 140 139 138 136 133 127 121 120 122 124 124 122 124 126 127 122 111 101 95 82 52 32 22 15 6 358 354 353 354 357 2 3 359 353 351 349 347 345 344 342 340 337 334 331 330 328 325 322 320 317 315 314 313 313 311 309 307 306 305 303 302 301 300 298 298 297 296 295 294 293 292 291 290 289 287 285 284 282 281 280 279 278 278 277 277 277 277
147 145 143 137 133 129 126 125 127 130 131 130 128 130 134 131 122 114 109 102 75 45 30 15 3 358 359 4 10 13 14 12 6 359 357 356 354 351 350 348 343 339 337 335 331 328 326 323 321 319 317 315 314 313 312 311 310 309 308 306 305 304 302 301 300 300 298 297 297 295 294 293 292 291 289 288 286 285 283 282 281 280 279 278 277 277 276 276
153 150 146 139 132 130 130 132 135 139 137 134 135 138 137 129 120 116 106 84 59 40 22 5 1 9 20 28 29 24 18 11 7 6 5 2 357 353 350 345 339 335 333 331 328 325 323 320 319 317 316 316 315 314 313 312 312 310 309 307 306 305 304 303 302 300 298 297 296 294 293 292 291 290 289 288 286 285 285 284 283 282 282 281 280 279 278 277
158 152 146 140 137 136 137 140 144 143 139 138 140 138 133 128 123 113 93 72 53 32 18 19 31 42 42 38 30 25 23 18 15 14 9 2 356 351 346 341 335 331 329 327 324 322 321 320 319 319 318 318 317 316 315 314 313 311 310 309 309 307 306 305 303 301 299 298 296 295 294 293 292 291 290 288 287 286 286 285 285 285 284 283 282 281 280 279
159 152 147 144 143 143 144 146 145 141 138 139 138 135 131 128 118 102 84 67 53 47 51 60 62 55 45 40 34 31 29 22 17 12 5 357 351 347 343 337 332 327 326 326 324 323 323 323 323 322 321 320 319 318 317 316 314 313 313 312 312 310 309 307 305 303 301 299 298 296 295 294 292 292 291 290 289 289 288 287 287 286 285 284 283 282 281 280
156 150 148 148 147 146 146 145 142 138 135 132 131 131 128 120 108 96 83 77 78 80 80 75 68 57 49 46 38 33 29 19 12 5 357 351 345 342 338 334 330 328 328 329 328 328 327 327 325 324 323 322 321 320 319 317 316 316 316 315 313 312 310 309 307 305 303 300 299 298 296 295 295 294 293 291 291 290 288 287 286 285 284 283 283 282 281 280
154 150 150 150 148 145 144 142 140 137 132 129 128 128 122 114 106 99 94 93 93 90 83 74 67 59 54 48 38 30 23 12 5 358 349 344 341 338 335 334 333 332 332 332 331 330 329 328 326 325 324 323 323 321 320 318 318 317 316 315 313 312 310 309 307 305 303 301 300 300 299 297 295 293 290 288 288 287 285 285 284 283 283 282 282 281 281 280
153 151 151 148 143 141 141 140 138 135 132 129 127 125 120 116 110 106 104 102 97 89 81 74 67 59 52 43 32 22 13 5 358 351 344 342 340 337 336 336 336 335 335 334 333 331 330 329 328 327 325 325 324 322 320 319 318 317 316 315 314 312 311 309 307 306 305 303 302 301 300 298 294 289 287 287 286 284 284 283 282 282 282 282 281 281 281 280
152 149 147 142 140 139 139 138 137 134 131 128 127 125 121 116 112 110 106 99 91 84 78 73 65 55 45 33 19 9 3 359 353 347 344 342 341 340 339 339 338 338 337 336 335 334 333 331 329 328 327 326 325 323 321 320 319 318 317 316 315 313 312 310 308 308 306 304 303 300 299 298 297 293 291 289 288 287 287 286 286 285 284 284 283 282 282 281
147 145 142 139 139 138 138 138 136 133 131 130 128 123 118 113 111 107 100 94 87 81 75 67 57 46 36 19 3 0 358 355 351 349 346 344 342 342 342 341 342 341 339 339 338 335 334 332 330 329 328 328 326 324 322 321 320 318 317 315 314 312 310 308 307 306 304 302 300 298 296 297 297 295 293 291 289 289 289 288 288 288 287 287 286 285 284 284
144 141 139 138 139 139 139 138 136 134 133 130 125 120 116 112 107 101 95 91 84 78 70 60 49 36 23 6 358 359 356 354 352 349 347 345 345 345 345 345 345 343 342 341 338 336 335 333 332 331 330 328 326 325 323 322 320 317 316 315 314 313 311 309 308 306 304 301 300 298 297 296 295 293 292 291 290 290 289 288 287 286 286 285 284 284 284 285
140 138 138 139 140 140 139 137 136 134 131 127 122 119 115 109 103 98 93 86 79 74 65 54 41 27 15 5 0 360 356 354 350 348 349 350 349 348 348 348 347 346 344 342 339 338 337 335 333 332 330 329 328 326 324 322 321 319 319 318 317 317 314 310 308 306 303 301 299 297 297 296 294 292 292 292 291 290 289 287 286 285 284 283 282 282 282 283
139 139 140 141 140 138 137 136 134 131 128 124 121 117 112 106 102 97 90 84 79 71 60 45 30 19 11 6 3 359 355 354 352 353 355 354 351 351 351 350 349 348 345 343 342 340 338 336 335 335 333 333 331 329 326 326 326 324 323 321 318 317 314 308 304 303 301 299 299 297 297 296 293 292 292 292 291 290 289 287 286 285 284 283 283 283 283 283
139 141 141 140 138 136 135 133 130 128 125 122 118 114 109 105 100 95 90 85 77 64 50 34 21 13 8 6 3 359 358 358 357 358 357 354 353 353 352 351 350 349 347 345 344 342 340 340 340 339 338 336 335 333 333 332 330 326 324 321 317 315 313 308 303 301 300 299 299 297 297 297 294 294 294 292 291 290 290 289 288 287 286 285 285 285 284 284
141 141 138 136 135 134 132 129 128 126 123 119 115 111 107 104 99 95 89 78 67 53 41 28 16 10 8 6 2 1 1 1 0 359 357 355 355 355 353 352 351 350 349 347 345 345 345 344 343 341 339 338 338 337 334 331 329 324 321 319 317 315 313 311 306 303 302 301 300 298 298 298 297 296 295 294 293 293 292 291 291 289 288 288 287 286 285 284
140 138 136 135 134 132 130 129 127 124 120 117 113 109 106 103 99 93 82 67 55 44 34 24 15 11 8 6 3 2 2 3 2 359 358 358 358 357 355 353 352 351 350 349 348 348 348 346 344 342 340 339 338 336 331 328 326 324 322 320 318 317 315 313 309 306 305 303 301 299 298 297 298 297 296 295 294 294 293 292 292 291 290 289 288 287 286 286
138 137 135 134 133 131 130 127 124 121 118 115 111 108 104 101 93 83 73 58 45 35 27 19 15 11 7 6 4 4 6 6 4 1 1 0 359 358 355 354 354 353 351 351 351 349 347 345 344 342 341 339 337 334 331 329 327 324 324 323 321 321 320 316 311 308 306 305 303 300 298 299 299 297 296 296 295 295 294 294 293 293 292 291 290 290 289 289
137 135 134 133 133 131 129 125 122 118 115 112 110 107 101 92 81 72 60 48 38 29 22 16 14 11 11 12 11 10 9 7 4 4 4 2 0 358 356 355 355 353 352 351 350 348 345 344 344 342 340 339 337 335 333 331 329 327 326 326 324 323 323 319 313 309 307 306 305 301 300 301 301 299 299 298 298 297 297 297 296 295 294 293 293 293 293 292
136 135 134 133 132 130 128 125 120 116 113 111 108 102 94 83 72 59 47 42 36 27 20 17 15 14 16 16 14 13 11 7 5 6 5 3 1 359 357 356 355 353 352 350 348 347 346 345 344 342 341 340 339 337 336 334 332 330 329 328 326 323 324 322 314 311 309 308 307 304 303 304 303 302 302 301 301 300 300 300 298 297 297 297 296 296 295 294
135 134 133 132 130 128 125 122 118 116 114 109 102 95 88 78 65 53 44 41 36 29 26 24 22 20 18 16 14 12 9 7 8 8 6 4 1 359 358 356 355 354 352 350 349 348 347 346 344 343 343 342 341 339 338 336 334 332 331 330 328 324 324 325 320 315 314 312 309 307 306 307 306 305 305 303 302 302 301 300 299 298 299 299 299 298 296 295
134 133 132 131 129 125 121 119 117 115 110 104 98 92 84 71 60 52 47 42 38 33 31 29 25 23 20 16 15 12 9 9 10 8 6 4 2 1 359 357 356 355 352 351 349 348 347 346 345 345 345 344 343 341 340 339 336 333 332 331 329 327 325 327 326 323 320 316 313 311 311 312 310 308 306 304 304 302 301 300 300 301 301 301 300 299 298 297
133 132 130 128 125 121 119 117 114 110 105 101 96 86 77 66 57 52 46 42 39 35 34 30 26 24 20 16 16 13 11 12 11 9 7 5 3 1 359 357 356 355 353 351 349 349 348 347 347 347 346 346 344 343 341 340 339 335 333 332 332 331 329 328 328 327 325 321 317 315 314 313 311 309 308 308 307 306 305 306 306 305 304 303 303 302 301 300
131 129 126 123 121 119 118 115 111 108 103 98 88 76 70 64 57 53 48 44 40 35 33 30 26 25 22 18 17 14 14 14 12 10 8 6 4 1 359 357 356 355 354 352 350 349 349 348 349 348 347 346 344 343 341 340 340 337 336 335 333 333 331 330 328 327 327 325 321 316 313 313 314 312 312 312 312 311 311 311 310 309 308 307 306 305 304 303
128 125 122 120 120 119 116 113 111 107 100 91 80 71 67 64 58 53 50 45 41 36 32 28 26 25 22 20 19 16 16 15 12 10 8 6 4 1 359 357 355 354 354 353 350 349 349 349 349 348 347 345 344 342 341 340 339 338 337 336 334 333 332 332 330 329 328 327 323 318 314 316 318 317 316 315 315 313 312 311 311 310 309 308 307 306 305 303
124 122 121 121 120 117 115 113 109 102 92 84 77 70 66 64 59 54 50 45 41 37 33 29 28 25 22 20 19 18 17 14 11 10 8 5 3 0 359 357 355 354 353 353 351 349 349 349 348 347 346 344 343 342 341 339 339 338 337 336 335 334 333 333 332 330 329 327 325 322 319 319 321 320 318 317 315 313 312 312 311 311 309 307 306 305 303 302
122 122 121 120 118 116 114 111 104 94 85 79 76 71 66 63 60 54 48 44 40 37 33 31 29 26 24 21 20 19 17 14 12 10 7 4 3 1 359 358 356 354 354 354 352 349 348 348 347 346 345 344 344 342 341 340 339 338 337 337 336 335 334 334 333 332 330 329 328 325 322 321 322 322 319 317 315 313 314 313 312 310 308 307 305 304 303 302
122 121 120 118 116 115 112 106 98 89 83 79 76 71 67 63 59 53 48 43 39 35 32 31 29 26 25 22 21 19 17 14 12 9 7 5 3 1 359 358 357 355 354 353 351 349 348 347 346 346 345 345 344 342 341 340 339 338 337 337 336 336 335 334 333 333 331 331 329 326 324 322 321 322 319 316 315 315 315 313 311 309 308 307 306 305 305 305
121 119 117 117 116 113 108 101 94 89 85 81 76 71 67 63 57 52 48 43 39 36 33 30 28 26 24 23 20 19 16 14 11 9 7 5 3 2 0 359 358 356 355 354 352 349 347 346 346 345 345 345 344 343 342 341 339 338 337 336 336 336 335 333 333 332 331 330 328 325 324 321 320 322 320 316 316 317 315 313 311 310 309 309 308 308 308 308
119 118 118 117 114 110 104 97 92 89 85 80 77 71 66 61 55 50 47 42 39 38 35 31 29 27 24 23 21 18 16 13 11 9 7 5 3 2 1 359 358 356 355 354 353 350 346 346 345 345 345 344 344 344 342 341 339 338 337 336 335 335 335 333 333 332 330 330 327 324 324 322 320 322 320 318 319 318 315 314 313 312 312 311 311 311 310 308
120 119 118 115 111 106 100 95 92 89 85 79 75 69 64 60 54 49 47 43 41 38 35 32 30 28 26 24 21 19 16 13 11 9 7 6 5 4 2 360 358 356 354 353 353 351 347 345 345 344 344 344 344 343 342 342 340 339 339 337 336 336 336 336 335 333 333 332 329 327 325 323 322 322 321 321 321 318 316 316 315 315 313 312 312 311 309 308
119 118 115 111 107 102 97 93 90 87 84 79 74 68 62 58 52 49 46 44 42 38 35 33 32 30 28 25 22 19 16 14 12 11 9 7 6 4 2 0 359 357 355 353 352 352 348 345 345 345 345 345 344 343 343 343 343 342 341 339 338 337 336 336 336 334 333 332 331 330 327 324 325 325 325 324 322 320 319 318 318 317 314 312 312 310 309 308
117 115 112 108 104 99 94 89 86 86 84 78 73 68 61 55 51 48 46 44 42 39 36 35 33 31 28 25 22 19 16 15 14 12 10 8 6 4 2 1 360 357 356 354 353 353 351 347 347 347 346 346 346 344 344 345 345 344 343 341 340 338 336 335 334 332 330 330 331 332 329 327 327 328 330 328 325 322 322 321 318 315 312 311 310 308 308 307
115 113 110 106 103 98 92 87 84 84 85 79 71 65 59 54 51 48 46 44 42 40 37 35 33 30 27 24 21 19 17 16 15 13 11 9 7 6 4 2 1 359 357 356 354 354 354 351 348 347 347 346 347 346 345 346 345 344 344 342 341 339 336 334 334 332 329 329 332 333 332 330 329 332 333 329 326 325 322 319 315 312 311 310 308 307 306 306
115 111 108 105 101 96 90 87 85 83 84 80 71 63 58 53 51 48 45 44 42 40 38 35 32 29 26 23 20 18 18 17 15 13 11 9 7 6 5 3 2 360 358 357 356 355 355 354 349 347 348 347 347 347 346 346 345 344 344 342 342 341 337 333 333 334 330 328 332 335 333 332 332 333 333 328 326 324 319 314 312 311 310 309 307 307 307 307
113 109 108 103 97 92 88 86 88 85 82 80 72 64 57 51 49 47 45 44 42 40 38 35 32 29 25 22 20 18 17 16 15 12 11 9 7 6 4 3 2 1 359 358 356 355 356 356 352 348 348 348 348 348 347 347 346 345 344 342 342 342 340 336 333 334 332 329 332 335 333 333 334 334 332 329 326 323 318 315 313 312 311 310 310 310 310 310
110 108 106 102 95 88 83 83 88 88 83 79 73 64 56 51 47 46 44 42 41 39 37 35 31 27 24 21 19 18 16 16 14 12 10 8 7 6 4 3 2 2 1 359 358 356 356 357 355 351 350 349 348 349 349 349 347 345 344 344 343 343 342 340 336 334 332 328 330 334 334 334 336 335 331 328 325 322 320 318 316 315 314 314 314 313 313 313
109 108 105 101 93 85 82 83 87 91 86 78 72 64 54 48 44 43 43 41 39 38 36 33 30 26 23 19 18 17 16 15 14 11 9 8 7 6 5 4 3 2 2 0 359 358 356 356 356 354 351 350 349 349 350 350 348 347 346 346 345 343 342 342 340 336 331 329 330 332 334 336 337 334 331 329 327 323 320 319 319 318 317 317 316 316 316 316
111 109 105 99 92 85 80 80 90 98 87 76 70 62 52 45 40 39 40 39 37 35 33 31 29 26 22 18 16 15 14 14 13 10 9 8 7 7 6 5 4 3 3 1 0 360 358 356 356 355 353 351 350 349 350 351 351 349 348 347 346 344 342 342 343 340 333 331 332 331 333 338 338 334 333 331 326 323 321 321 321 319 319 319 319 319 318 317
115 106 100 95 92 87 80 81 100 99 86 77 69 58 48 40 37 36 37 37 35 33 31 29 27 24 21 18 15 13 13 12 11 10 9 8 7 7 7 6 5 4 4 3 2 1 360 358 356 356 356 355 353 352 352 352 352 350 349 348 346 345 342 340 342 342 337 335 333 330 332 339 339 335 333 330 325 324 324 323 322 321 322 322 322 320 319 319
111 101 92 86 86 89 91 102 101 91 83 79 68 54 44 35 33 33 33 34 33 31 30 27 25 22 20 16 14 12 11 11 10 9 8 8 7 7 7 6 5 5 4 4 3 2 1 359 358 357 357 357 355 354 354 353 352 352 351 350 348 346 343 340 339 341 339 337 336 333 335 340 339 335 332 329 326 326 326 325 325 325 325 324 323 321 321 321
104 96 90 86 84 92 110 103 87 80 80 79 66 50 39 31 30 30 30 31 30 28 27 25 23 21 18 15 12 10 9 9 9 8 7 7 7 6 6 6 6 5 4 4 3 2 1 0 358 357 358 358 357 356 356 355 355 355 354 352 350 349 345 342 340 339 339 340 339 336 337 341 341 336 332 329 328 330 330 329 329 328 327 326 324 323 324 324
99 94 94 94 88 88 94 84 73 74 77 72 59 44 34 27 26 27 28 29 28 26 25 24 22 20 17 13 10 8 8 8 8 7 6 6 6 6 6 6 5 5 4 4 3 2 1 1 358 356 357 358 358 358 358 359 358 358 357 354 352 350 348 346 343 341 340 342 342 339 338 342 343 338 333 332 333 334 334 333 332 330 328 327 325 326 327 327
96 96 96 92 82 72 74 69 60 63 67 60 49 40 30 24 23 24 25 26 26 24 23 23 21 19 16 12 9 7 7 7 6 5 5 5 4 4 4 4 4 4 3 3 3 2 2 2 360 357 356 356 358 358 358 359 359 359 358 356 353 351 350 349 347 343 341 343 346 343 338 341 344 340 337 338 338 337 337 336 333 332 330 328 328 330 331 331
95 95 90 84 74 61 58 58 50 49 52 46 39 33 26 22 20 22 24 23 23 23 21 21 19 17 14 10 8 7 6 6 5 4 4 3 3 3 3 3 3 2 2 2 2 2 2 2 2 359 357 357 357 357 357 357 358 358 358 358 356 353 352 351 348 344 341 343 348 346 339 340 344 341 340 342 341 340 339 337 335 333 331 330 332 334 335 337
92 88 83 76 66 54 48 48 44 40 38 31 28 25 23 21 17 19 23 22 21 21 19 19 18 16 13 10 8 7 6 6 5 4 4 3 2 2 2 2 2 1 1 2 2 3 2 3 3 1 359 358 358 358 358 358 357 357 358 358 358 356 354 352 349 346 344 344 347 348 344 343 344 342 342 344 343 342 341 339 336 334 332 334 337 339 341 343
85 81 77 68 57 47 42 41 37 33 27 21 22 21 18 16 15 18 21 19 19 19 18 18 16 14 11 9 7 6 6 6 5 4 3 2 2 2 2 2 2 1 1 2 2 3 2 3 3 2 1 360 359 359 358 358 358 358 358 358 358 357 355 354 351 349 347 345 345 348 348 347 345 344 345 346 344 343 342 340 337 335 335 339 342 344 346 348
79 76 73 63 52 44 38 33 29 25 18 14 18 18 15 13 13 16 18 18 17 16 16 15 13 11 9 6 5 4 4 5 5 5 4 3 2 2 2 2 3 2 2 3 3 3 3 3 3 3 2 1 0 359 359 359 359 359 359 358 358 359 357 356 354 350 348 348 347 348 349 349 348 347 347 347 346 345 343 340 338 338 340 344 346 348 349 349
72 73 70 62 51 41 34 27 23 17 11 11 15 15 14 11 11 14 16 15 15 14 13 12 10 9 7 4 3 3 3 5 5 5 4 3 3 2 3 3 3 3 3 3 3 3 3 3 3 3 2 2 2 1 360 0 360 359 360 359 359 360 0 360 357 351 349 350 350 350 350 350 351 349 348 348 348 347 345 342 341 343 345 347 349 350 351 352
67 72 69 60 48 38 29 22 18 11 7 11 15 15 13 10 10 14 14 13 13 13 11 10 8 7 4 3 2 2 3 4 5 5 4 3 3 3 3 3 3 4 4 4 4 3 3 3 3 3 3 2 2 2 1 1 1 360 360 1 1 1 1 1 358 353 350 350 351 351 351 352 352 350 349 349 350 350 348 344 344 346 348 350 352 353 355 357
66 73 69 56 43 33 23 17 14 9 8 14 17 17 14 10 12 14 12 12 12 11 10 8 7 5 3 2 2 2 3 4 4 4 3 3 3 3 3 4 4 4 4 4 4 4 3 3 3 3 3 2 2 2 2 1 1 2 2 2 3 2 1 1 359 355 353 352 351 353 353 352 352 351 350 351 353 353 350 345 345 348 351 353 354 355 358 0